www.pogodaiklimat.ru

Погода и климат >> Архив погоды >> Португалия >> Аэропорт Лажеша


ПОГОДА в Аэропорту Лажеша

  • Прогноз погоды в Аэропорту Лажеша
  • Монитор погоды в Аэропорту Лажеша

АРХИВ ПОГОДЫ в Аэропорту Лажеша

Время (UTC), дата Ветер
(напр.,м/с)
 
Видим.   Явления Облачность Т
(С)
Тd
(С)
f
(%)
Тe
(С)
Тes
(С)
Комфортность P
(гПа)
Po
(гПа)
Тmin
(С)
Tmax
(С)
R
(мм)
R24
(мм)
S
(см)
09 14.07 СЗ 5 10 км 5/1 600 м
[Cu Sc Ci fib]
+22.0 +17.2 74 +26 +28 душно 1024.3 1017.8
12 14.07 СЗ 4 10 км 6/4 720 м
[Cu med, cong Ac trans Ci fib]
+23.2 +17.2 69 +28 +34 душно 1025.4 1019.0
15 14.07 СЗ 6 10 км 8/4 800 м
[Cu Sc Ac trans Ci fib]
+24.2 +17.7 67 +28 +31 душно 1025.3 1018.8
18 14.07 СЗ 5 10 км 8/4 800 м
[Cu med, cong Ac trans Ci fib]
+24.4 +17.1 64 +28 +30 душно 1025.3 1018.8 +24.6
21 14.07 СЗ 3 10 км 8/3 800 м
[Cu med, cong Ac trans Ci fib]
+22.8 +16.8 69 +28 +28 душно 1025.4 1019.0
00 15.07 З 2 10 км 3/3 800 м
[Cu med, cong Ac trans]
+22.2 +16.3 69 +26 +26 душно 1026.1 1019.6
03 15.07 штиль 0 10 км 4/3 750 м
[Cu med, cong Ac trans]
+20.2 +17.7 86 +23 +23 комфорт 1025.4 1019.0
06 15.07 штиль 0 10 км 4/3 750 м
[Cu Sc Ac trans]
+19.0 +16.7 87 +20 +20 1025.4 1019.0 +19.0
09 15.07 СЗ 3 10 км 5/3 750 м
[Cu Sc Ac trans]
+21.4 +16.2 72 +25 +27 комфорт 1026.0 1019.5
12 15.07 С 3 10 км 3/3 750 м
[Cu Sc]
+22.2 +16.8 71 +27 +36 душно 1026.6 1020.1
15 15.07 СВ 3 10 км 5/5 600 м
[Cu Sc]
+23.2 +16.9 68 +28 +36 душно 1026.8 1020.3
18 15.07 штиль 0 10 км 4/4 750 м
[Cu Sc]
+23.3 +16.0 64 +28 +34 душно 1026.6 1020.1 +24.2
21 15.07 штиль 0 10 км 3/3 750 м
[Cu Sc Ci fib]
+21.8 +16.0 70 +26 +26 душно 1027.1 1020.7
00 16.07 штиль 0 10 км ясно +18.8 +16.0 84 +20 +20 1027.8 1021.3
03 16.07 штиль 0 10 км ясно +17.6 +15.7 89 +18 +18 1027.1 1020.7
06 16.07 штиль 0 10 км 1/1 600 м
[Cu hum]
+17.4 +15.8 90 +17 +17 1027.3 1020.8 +16.6
09 16.07 ЮВ 2 10 км 1/1 600 м
[Cu hum]
+20.0 +17.0 83 +23 +27 комфорт 1027.3 1020.8
12 16.07 ЮВ 6 10 км 1/1 700 м
[Cu hum]
+23.4 +17.8 71 +29 +35 душно 1027.6 1021.2
15 16.07 СЗ 4 10 км 3/3 750 м
[Cu hum]
+24.4 +16.9 63 +28 +37 душно 1027.6 1021.2
18 16.07 В 4 10 км 3/3 750 м
[Cu Sc]
+23.4 +17.5 69 +29 +32 душно 1027.6 1021.2 +25.6
21 16.07 штиль 0 10 км 3/3 660 м
[Cu Sc]
+22.1 +17.8 77 +27 +27 душно 1028.0 1021.5
00 17.07 штиль 0 10 км 1/1 600 м
[Cu hum]
+21.0 +17.2 79 +25 +25 комфорт 1028.3 1021.8
03 17.07 штиль 0 10 км 1/1 450 м
[Cu hum]
+20.4 +17.6 84 +24 +24 комфорт 1027.8 1021.3
06 17.07 штиль 0 10 км 1/1 450 м
[Cu hum]
+19.0 +17.0 88 +20 +20 1027.3 1020.8 +18.7
09 17.07 штиль 0 10 км 1/1 600 м
[Cu hum]
+21.8 +17.3 76 +26 +32 душно 1027.8 1021.3
12 17.07 С 2 10 км 3/3 800 м
[Cu hum]
+25.6 +16.3 56 +29 +41 душно 1028.0 1021.5
15 17.07 СВ 2 10 км 3/3 800 м
[Cu hum]
+23.4 +17.6 70 +29 +42 душно 1028.0 1021.5
18 17.07 В 3 10 км 4/4 800 м
[Cu hum]
+24.2 +18.4 70 +29 +32 душно 1027.5 1021.0 +25.6
21 17.07 ЮЗ 4 10 км 1/1 600 м
[Cu hum]
+22.8 +18.4 76 +28 +28 душно 1027.3 1020.8
00 18.07 СЗ 3 10 км 1/1 450 м
[Cu hum]
+21.6 +18.8 84 +26 +26 душно 1027.5 1021.0
03 18.07 ЮЗ 4 10 км 1/1 420 м
[Cu hum Ci fib]
+22.0 +19.1 84 +27 +27 душно 1026.1 1019.6
06 18.07 ЮЗ 2 10 км 8/8 420 м
[Cu Sc]
+22.4 +19.2 82 +28 +28 душно 1025.8 1019.3 +21.4
09 18.07 З 2 10 км 8/8 420 м
[Cu Sc]
+23.0 +19.5 81 +30 +30 очень
душно
1025.8 1019.3
12 18.07 С 2 10 км слаб. дождь 8/8 360 м
[Cu Sc]
+24.8 +20.3 76 +31 +34 очень
душно
1025.8 1019.3 0.0
15 18.07 С 3 10 км слаб. дождь 8/5 480 м
[Cu Sc Ac trans]
+24.4 +20.9 81 +31 +36 очень
душно
1025.1 1018.6
18 18.07 ЮВ 2 10 км {дождь} 6/5 660 м
[Cu Sc As op]
+24.9 +19.3 71 +30 +33 душно 1024.1 1017.6 +25.2 0.1
21 18.07 З 3 10 км 5/4 450 м
[Cu Sc Ac trans]
+23.4 +20.0 81 +30 +30 очень
душно
1023.9 1017.4
03 19.07 штиль 0 10 км 1/1 600 м
[Cu hum]
+20.4 +18.9 91 +24 +24 комфорт 1023.7 1017.3
06 19.07 штиль 0 10 км 1/1 450 м
[Cu hum]
+19.6 +17.2 86 +22 +22 комфорт 1023.1 1016.6 +19.6
09 19.07 С 2 10 км 1/1 720 м
[Cu Sc]
+22.2 +19.2 83 +28 +32 душно 1023.4 1016.9
12 19.07 З 6 10 км 5/5 750 м
[Cu Sc]
+27.6 +19.6 62 +33 +37 очень
душно
1023.4 1016.9
15 19.07 СЗ 9 10 км 4/4 800 м
[Cu Sc]
+27.2 +20.8 68 +34 +35 очень
душно
1022.9 1016.4
18 19.07 СЗ 8 10 км 3/3 800 м
[Cu Sc]
+26.2 +20.4 70 +32 +33 очень
душно
1022.4 1015.9 +28.0
21 19.07 штиль 0 10 км 1/1 750 м
[Cu Sc]
+25.0 +20.5 76 +31 +31 очень
душно
1022.7 1016.3
00 20.07 штиль 0 10 км 1/1 750 м
[Cu hum]
+22.2 +19.0 82 +28 +28 душно 1023.4 1016.9
03 20.07 штиль 0 10 км 1/1 750 м
[Cu hum]
+21.5 +19.0 86 +26 +26 душно 1022.7 1016.3
06 20.07 штиль 0 10 км 1/1 750 м
[Cu hum]
+20.4 +19.1 92 +24 +24 комфорт 1022.1 1015.6 +20.4
09 20.07 штиль 0 10 км 1/1 480 м
[Cu hum]
+23.0 +19.4 80 +29 +35 очень
душно
1022.7 1016.3
12 20.07 СЗ 4 10 км 1/1 600 м
[Cu hum]
+25.0 +20.5 76 +31 +41 очень
душно
1022.6 1016.1
15 20.07 ЮЗ 7 10 км 1/1 700 м
[Cu hum]
+28.2 +19.7 60 +34 +39 очень
душно
1022.6 1016.1
18 20.07 Ю 5 10 км 3/3 420 м
[Cu hum]
+26.8 +19.7 65 +33 +35 очень
душно
1022.4 1015.9 +28.5
21 20.07 ЮЗ 3 10 км 3/3 420 м
[Cu Sc]
+24.6 +19.9 75 +30 +30 очень
душно
1022.7 1016.3
00 21.07 Ю 4 10 км 3/3 420 м
[Cu hum]
+22.6 +19.6 83 +29 +29 очень
душно
1022.4 1015.9
03 21.07 Ю 4 10 км 4/4 450 м
[Cu Sc]
+22.4 +19.5 84 +28 +28 душно 1020.7 1014.2
06 21.07 Ю 7 10 км 5/5 450 м
[Cu Sc]
+22.5 +19.0 81 +28 +28 душно 1019.7 1013.2 +21.5

 

Местоположение метеостанции Аэропорт Лажеша (Португалия): широта 38.77 долгота -27.10 высота над уровнем моря 54 м.

В архиве по умолчанию представлена погода в Аэропорту Лажеша за последнюю неделю. Архивные данные за месяц целиком и за предыдущие месяцы, начиная с января 2011 года, Вы можете получить, выбрав интересующий диапазон дат из раскрывающегося списка и нажав кнопку "Ввод!".


*Определитесь, кто Вы:
робот инопланетянин человек

Внимание! Время в таблицах - всемирное. Для получения местного времени необходимо прибавить поправку, которая равна 0 ч.

Смотрите также архив погоды в соседних городах и на ближайших метеорологических станциях:

Погода в Ангра-ду-Эроижму (Португалия) (15 км)
Погода на Острове Грасьоса (Португалия) (88 км)
Погода в Сан-Жоржи (Португалия) (94 км)
Погода в Пико (Португалия) (119 км)
Погода в Орте (Португалия) (136 км)
Погода в Каштелу-Бранку (Португалия) (143 км)
Погода в Понта-Делгаде (Португалия) (168 км)
Погода в Санта-Марии (Португалия) (263 км)
Погода на Флошише (Португалия) (356 км)
Погода в Фуншале (Португалия) (1146 км)

Пояснения к столбцам:

Ветер - указаны скорость ветра в м/с - средняя за 10 мин, порывы в срок и между сроками (в фигурных скобках) и направление, откуда дует ветер: С - северный, СВ - северо-восточный, В - восточный, ЮВ - юго-восточный, Ю - южный, ЮЗ - юго-западный, З - западный, СЗ - северо-западный.
Видимость - горизонтальная дальность видимости в метрах или километрах. При видимости от 1 до 10 км при отсутствии осадков обычно наблюдается дымка, при ухудшении видимости до 1 км и менее - туман. В сухую погоду видимость может ухудшаться дымом, пылью или мглою.
Явления - указаны атмосферные явления, наблюдавшиеся в срок или в последний час перед сроком; фигурными скобками обозначены явления, наблюдавшиеся между сроками (за 1-3 часа до срока); квадратными скобками обозначены град или гололедные отложения с указанием их диаметра в мм.
Облачность - указаны через наклонную черту общая и нижняя облачность в баллах и высота нижней границы облаков в метрах; квадратными скобками обозначены формы облаков: Ci - перистые, Cs - перисто-слоистые, Cc - перисто-кучевые, Ac - высококучевые, As - высокослоистые, Sc - слоисто-кучевые, Ns - слоисто-дождевые, Cu - кучевые, Cb - кучево-дождевые. Подробнее классификацию облаков см. в Атласе облаков (PDF).
T - Температура воздуха - температура, измеренная на высоте 2 м над землей.
Td - Температура точки росы - температура, при понижении до которой содержащийся в воздухе водяной пар достигнет насыщения.
f - Относительная влажность воздуха - влажноcть воздуха, измеренная на высоте 2 м над землей.
Te - Эффективная температура - температура, которую ощущает одетый по сезону человек в тени. Характеристика душности погоды. При расчете учитывается влияние влажности воздуха и скорости ветра на теплоощущения человека.
Tes - Эффективная температура на солнце - температура, которую ощущает человек, с поправкой на солнечный нагрев. Характеристика знойности погоды. Зависит от высоты солнца над горизонтом, облачности и скорости ветра. Ночью, в пасмурную погоду, а также при ветре 12 м/с и более поправка равна нулю.
P - Атмосферное давление - приведенное к уровню моря атмосферное давление.
Po - Атмосферное давление - измеренное на уровне метеостанции атмосферное давление.
Tmin - Минимальная температура - минимум температуры воздуха на высоте 2 м над землей.
Tmax - Максимальная температура - максимум температуры воздуха на высоте 2 м над землей.
R - Количество осадков - Количество выпавших осадков за период времени, мм. При наведении курсора мыши на число - период времени, за который выпало указанное количество осадков.
R24 - Количество осадков - Количество выпавших осадков за 24 часа, мм.
S - Снежный покров - Высота снежного покрова, см. При наведении курсора мыши на число - состояние снежного покрова и степень покрытия местности в баллах.